Weather History for Berlin, NH

Change the Weather History Date:

Saturday, January 19, 2013

  Actual Average Record
Temperature  
Mean Temperature 13 °F -  
Max Temperature 28 °F 19 °F 41 °F (1999)
Min Temperature -2 °F 0 °F -27 °F (1997)
Degree Days  
Heating Degree Days 52    
Moisture  
Dew Point 7 °F    
Average Humidity 82    
Maximum Humidity 88    
Minimum Humidity 77    
Precipitation  
Precipitation 0.05 in - - ()
Sea Level Pressure  
Sea Level Pressure 30.05 in    
Wind  
Wind Speed 0 mph (North)    
Max Wind Speed 0 mph    
Max Gust Speed -    
Visibility 5 miles    
Events Snow    
Averages and records for this station are not official NWS values.
T = Trace of Precipitation, MM = Missing Value Source: NWS Daily Summary

Daily Weather History Graph

Daily Weather History Graph

Search for Another Location

Airport:

Trip Planner

Search our weather history database for the weather conditions in past years. The results will help you decide how hot, cold, wet, or windy it might be!

Date:

Astronomy

Jan. 19, 2013 Rise Set
Actual Time 7:15 AM EST 4:36 PM EST
Civil Twilight 6:43 AM EST 5:08 PM EST
Nautical Twilight 6:07 AM EST 5:44 PM EST
Astronomical Twilight 5:32 AM EST 6:18 PM EST
Moon 11:03 AM EST (1/19) 12:42 AM EST (1/19)
Length of Visible Light 10h 25m
Length of Day
9h 20m
First Quarter, 57% of the Moon is Illuminated
Jan 19
First Quarter
Jan 26
Full
Feb 3
Last Quarter
Feb 10
New
Feb 17
First Quarter

Hourly Weather History & Observations

Time (EST) Temp. Dew Point Humidity Pressure Visibility Wind Dir Wind Speed Gust Speed Precip Events Conditions
12:52 AM -2.0 °F -7.1 °F 79% 30.27 in 10.0 mi Calm Calm - N/A   Overcast
1:52 AM -0.0 °F -5.1 °F 79% 30.25 in 3.0 mi Calm Calm - 0.00 in Snow Light Snow
1:59 AM -0.4 °F -5.8 °F 78% 30.16 in 2.5 mi Calm Calm - 0.00 in Snow Light Snow
2:43 AM 1.4 °F -2.2 °F 85% 30.14 in 3.0 mi Calm Calm - 0.00 in Snow Light Snow
2:48 AM 1.4 °F -2.2 °F 85% 30.14 in 2.5 mi Calm Calm - 0.00 in Snow Light Snow
2:52 AM 1.9 °F -2.9 °F 80% 30.22 in 2.5 mi Calm Calm - 0.00 in Snow Light Snow
3:03 AM 1.4 °F -2.2 °F 85% 30.13 in 3.0 mi Calm Calm - 0.00 in Snow Light Snow
3:26 AM 3.2 °F -2.2 °F 78% 30.11 in 2.5 mi Calm Calm - 0.00 in Snow Light Snow
3:38 AM 3.2 °F -0.4 °F 85% 30.10 in 2.5 mi Calm Calm - 0.00 in Snow Light Snow
3:52 AM 3.0 °F -0.9 °F 84% 30.17 in 2.5 mi Calm Calm - 0.00 in Snow Light Snow
4:13 AM 3.2 °F -0.4 °F 85% 30.08 in 3.0 mi Calm Calm - 0.00 in Snow Light Snow
4:26 AM 3.2 °F -0.4 °F 85% 30.07 in 2.5 mi Calm Calm - 0.00 in Snow Light Snow
4:42 AM 5.0 °F -0.4 °F 78% 30.07 in 1.8 mi Calm Calm - 0.00 in Snow Light Snow
4:52 AM 5.0 °F -0.0 °F 80% 30.15 in 1.0 mi Calm Calm - 0.00 in Snow Light Snow
5:09 AM 5.0 °F -0.4 °F 78% 30.05 in 1.0 mi Calm Calm - 0.01 in Snow Light Snow
5:52 AM 6.1 °F 1.0 °F 80% 30.12 in 1.0 mi Calm Calm - 0.03 in Snow Light Snow
6:19 AM 8.6 °F 3.2 °F 79% 30.03 in 1.2 mi Calm Calm - 0.01 in Snow Light Snow
6:37 AM 8.6 °F 3.2 °F 79% 30.03 in 1.8 mi Calm Calm - 0.01 in Snow Light Snow
6:52 AM 8.1 °F 3.9 °F 83% 30.12 in 1.8 mi Calm Calm - 0.01 in Snow Light Snow
7:09 AM 8.6 °F 3.2 °F 79% 30.02 in 1.5 mi Calm Calm - 0.00 in Snow Light Snow
7:17 AM 8.6 °F 5.0 °F 85% 30.02 in 1.2 mi Calm Calm - 0.00 in Snow Light Snow
7:52 AM 10.0 °F 6.1 °F 84% 30.10 in 1.2 mi Calm Calm - 0.01 in Snow Light Snow
8:04 AM 10.4 °F 6.8 °F 85% 30.00 in 1.5 mi Calm Calm - 0.00 in Snow Light Snow
8:18 AM 10.4 °F 6.8 °F 85% 30.00 in 2.5 mi Calm Calm - 0.00 in Snow Light Snow
8:29 AM 10.4 °F 6.8 °F 85% 29.99 in 4.0 mi Calm Calm - 0.00 in Snow Light Snow
8:52 AM 12.9 °F 8.1 °F 81% 30.09 in 5.0 mi Calm Calm - 0.00 in   Haze
9:52 AM 14.0 °F 9.0 °F 80% 30.07 in 9.0 mi Calm Calm - N/A   Overcast
10:52 AM 19.0 °F 12.9 °F 77% 30.03 in 10.0 mi Calm Calm - N/A   Overcast
11:52 AM 21.0 °F 15.1 °F 78% 29.98 in 10.0 mi Calm Calm - N/A   Overcast
12:52 PM 21.9 °F 17.1 °F 82% 29.96 in 10.0 mi Calm Calm - N/A   Overcast
1:52 PM 25.0 °F 19.0 °F 78% 29.96 in 10.0 mi Calm Calm - N/A   Overcast
2:52 PM 26.1 °F 19.9 °F 78% 29.95 in 10.0 mi Calm Calm - N/A   Overcast
4:52 PM 27.0 °F 21.9 °F 81% 29.94 in 10.0 mi Calm Calm - N/A   Overcast
5:52 PM 27.0 °F 21.9 °F 81% 29.94 in 10.0 mi Calm Calm - N/A   Overcast
6:52 PM 27.0 °F 23.0 °F 85% 29.93 in 10.0 mi Calm Calm - N/A   Overcast
7:52 PM 27.0 °F 23.0 °F 85% 29.93 in 10.0 mi Calm Calm - N/A   Overcast
9:52 PM 28.0 °F 24.1 °F 85% 29.88 in 10.0 mi Calm Calm - N/A   Overcast
10:52 PM 26.1 °F 23.0 °F 88% 29.84 in 10.0 mi Calm Calm - N/A   Overcast
11:52 PM 28.0 °F 23.0 °F 81% 29.81 in 8.0 mi Calm Calm - 0.00 in Snow Light Snow